User: anonymous   Login
Location: Unspecified
(0.0000°N, 0.0000°E)
Time: 06:13:53
(UTC+00:00)
Language:

WISE - Orbit

View from above orbital plane
View from above orbital plane
View from above satellite
View from above satellite

Ground track
Ground track

The orbit data is extracted from the following two-line orbital elements,

1 36119U 09071A   19109.83306773  .00000711  00000-0  27447-4 0  9991
2 36119  97.3787 145.4695 0004359  93.3412 266.8327 15.29529560518901
Epoch (UTC): 19 April 2019 19:59:37
Eccentricity: 0.0004359
inclination: 97.3787°
perigee height: 474 km
apogee height: 480 km
right ascension of ascending node: 145.4695°
argument of perigee: 93.3412°
revolutions per day: 15.29529560
mean anomaly at epoch: 266.8327°
orbit number at epoch: 51890

The dashed part of the orbit path shows where the satellite is in the earth's shadow,  

DLR